Theta_e
301 293 290 289 292 295 297 297 297 297 297 296 295 294 292 292 294 297 297 299 299 296 295 295 295 294 295 297 298 300 300 299 299 298 299 300 300 301 301 302 301 301 301 303 303 303 303 303 303 303 302 303 303 303 303 303 304 304 305 305 305 306 306 308 308 310 310 310 311 311 310 310 310 310 311 311 311 311 311 309 309 308 308 307 307 307
300 292 293 296 297 298 299 300 300 299 298 296 294 293 292 293 291 296 297 299 300 294 292 294 293 293 295 297 298 300 299 298 298 299 299 299 300 300 300 300 300 301 302 302 301 302 301 301 301 301 301 301 300 301 302 302 303 303 303 303 304 305 305 305 307 308 309 310 309 308 308 309 309 309 308 308 309 310 310 309 307 306 306 305 306 305
293 291 295 299 300 300 300 299 299 297 296 296 293 292 290 291 295 297 298 299 296 294 290 292 291 292 295 297 299 298 298 299 300 300 299 299 300 300 300 299 299 299 299 299 300 299 299 299 299 299 300 300 300 300 301 301 302 302 302 303 303 304 304 304 305 305 306 309 309 310 309 310 309 310 309 309 308 308 309 308 307 306 305 305 304 304
290 294 298 301 300 299 298 298 298 297 296 292 291 289 288 293 291 289 295 296 296 293 291 293 292 293 296 298 298 299 299 300 301 302 301 301 299 298 298 299 298 298 297 297 297 297 297 297 297 297 297 298 299 299 299 300 300 301 301 301 302 302 303 303 303 303 304 304 305 307 307 305 306 304 304 305 306 307 307 307 306 305 304 304 304 303
294 299 303 300 300 298 296 297 296 294 292 294 294 292 291 292 293 292 292 295 296 296 296 293 291 290 294 294 295 298 300 300 301 300 300 299 299 299 299 298 298 296 296 295 296 296 296 296 295 296 296 297 297 297 298 299 299 300 299 300 301 301 302 302 302 302 302 303 303 304 305 303 303 303 302 301 301 303 304 304 304 303 303 303 302 302
296 301 302 299 298 299 297 294 295 295 290 292 294 295 294 295 293 294 294 293 289 288 293 291 282 284 291 294 295 297 296 296 298 298 297 297 298 298 297 297 297 297 296 295 295 295 295 295 295 295 296 296 296 297 297 298 298 298 298 299 299 300 301 301 301 301 301 301 300 300 300 299 299 298 299 298 299 300 301 302 302 302 302 302 301 301
297 299 301 298 297 296 296 294 295 297 291 289 291 297 298 296 295 293 292 290 282 281 291 294 283 281 291 291 294 296 297 296 296 295 295 296 296 296 296 296 295 295 295 294 294 294 294 294 294 294 294 295 295 296 297 297 297 297 297 298 298 298 298 300 300 300 300 299 299 299 299 299 298 298 299 300 301 301 301 303 302 302 301 301 301 300
298 297 295 297 297 295 294 291 296 296 291 288 295 296 295 294 292 292 292 290 287 290 292 293 289 282 282 289 295 297 296 293 293 293 294 295 295 295 294 294 294 294 294 293 293 293 293 293 293 293 293 294 295 296 297 297 297 297 296 296 297 297 297 298 298 299 299 299 298 298 297 298 298 298 298 299 300 300 299 300 301 300 300 300 300 300
297 294 295 294 293 291 292 295 298 298 293 292 294 295 293 294 293 291 289 287 287 285 282 286 290 282 281 289 295 296 292 290 291 292 293 294 294 294 294 294 293 293 293 293 292 292 292 292 293 293 293 293 294 295 295 296 296 297 296 296 296 296 296 297 297 297 298 298 298 298 298 297 298 298 299 299 299 298 298 298 298 299 299 299 299 299
298 297 297 298 293 291 295 295 297 299 293 296 296 295 295 294 293 292 285 285 284 282 280 285 289 282 283 290 291 293 290 289 290 292 293 292 292 292 292 292 293 293 292 293 293 292 292 292 292 292 293 293 294 294 295 295 295 296 296 295 295 294 295 296 296 297 296 297 297 297 296 296 296 297 298 297 297 297 298 296 297 297 297 296 297 297
297 296 298 296 295 297 293 292 295 298 297 295 296 293 291 291 289 287 287 285 283 279 281 287 290 287 280 288 290 290 292 291 291 291 291 292 291 291 291 291 291 291 291 291 291 292 292 292 292 292 292 292 293 293 293 294 294 294 294 294 294 294 295 295 295 295 295 296 296 295 295 295 295 295 296 295 296 296 296 297 297 296 296 296 295 296
296 295 294 296 300 297 296 294 293 296 295 295 289 287 287 286 285 285 284 283 278 278 283 289 290 290 279 283 290 292 293 293 292 290 290 290 290 290 290 290 291 290 290 290 290 289 290 291 291 291 291 291 291 291 292 292 293 293 293 293 293 293 293 294 294 294 295 295 295 294 294 294 294 295 295 295 294 295 294 294 295 295 295 294 295 294
290 291 295 298 297 297 293 291 292 293 293 290 287 286 282 280 282 279 280 274 278 277 284 285 289 285 284 289 292 291 291 292 293 292 290 289 289 290 290 290 290 289 289 289 288 289 289 289 289 289 290 290 290 290 290 291 291 292 292 292 291 292 292 293 293 293 293 293 293 294 294 294 294 294 294 294 294 294 294 294 294 294 294 294 294 293
287 293 295 295 296 297 296 287 286 284 288 287 284 282 281 277 276 272 277 280 279 283 283 284 287 281 287 290 291 290 291 291 291 291 291 290 289 289 289 289 289 289 288 288 287 288 288 288 288 289 288 289 289 289 289 290 290 291 291 291 291 291 292 292 293 293 292 292 292 293 293 293 293 293 293 293 293 294 294 294 294 294 293 293 294 294
281 282 290 292 289 296 295 293 292 293 288 288 290 288 283 281 277 272 276 273 275 278 283 284 281 279 280 284 290 290 291 290 290 290 290 290 289 289 288 288 288 287 287 287 286 286 287 287 287 287 288 288 288 289 289 289 289 290 290 290 290 290 291 291 292 292 292 292 292 292 292 292 292 292 293 293 293 293 293 293 294 294 294 293 294 293
286 285 293 297 294 295 293 296 298 295 290 290 291 291 286 282 285 281 282 280 279 280 279 281 281 283 286 290 290 291 289 289 289 289 289 288 288 288 287 287 287 287 287 287 286 286 286 286 286 287 287 287 287 288 288 288 288 288 288 289 289 289 289 290 291 291 292 292 292 292 291 291 291 291 292 292 292 292 293 293 293 293 293 294 293 294
286 283 291 296 295 293 293 297 297 296 280 287 288 283 286 291 289 283 282 283 282 281 279 283 284 288 292 288 289 289 288 288 288 288 288 287 287 287 286 286 286 286 286 286 286 286 285 285 285 286 286 287 288 288 287 287 287 287 287 287 288 288 288 289 289 290 291 291 290 290 291 291 290 290 290 290 290 291 291 291 292 292 292 293 293 294
283 286 295 292 291 293 292 293 294 295 296 287 281 285 292 294 291 285 278 280 279 276 277 282 279 280 282 277 287 286 285 286 286 287 287 287 287 286 286 286 286 286 286 287 287 286 286 285 285 285 286 286 287 287 288 288 287 287 287 286 287 287 287 287 288 288 289 289 289 289 290 290 289 289 289 290 289 290 290 290 290 290 290 291 291 292
292 282 289 294 294 293 293 293 291 294 296 290 287 293 283 280 280 284 281 274 275 275 276 279 281 282 283 283 284 284 284 285 286 286 286 286 286 285 285 285 286 286 286 286 285 285 285 284 284 284 284 285 286 286 287 288 288 287 286 286 287 287 287 287 289 288 289 289 289 289 287 287 287 287 288 289 289 289 288 288 289 289 289 289 290 290
292 281 284 291 291 293 292 290 282 286 292 293 293 287 291 285 283 281 282 280 281 276 277 276 281 277 286 285 287 286 286 286 286 285 285 285 286 286 285 286 286 285 285 285 285 284 284 283 282 282 282 283 285 285 287 288 288 287 287 286 286 286 286 286 287 287 287 287 286 286 285 286 286 286 287 287 288 287 287 287 287 287 287 288 288 288
285 290 278 288 292 292 282 287 283 287 283 284 283 282 286 284 287 286 283 281 279 277 277 276 274 279 285 287 287 286 287 287 287 286 286 286 286 286 286 286 285 285 285 285 284 284 284 284 283 283 283 284 283 283 285 286 286 286 286 286 286 286 285 286 287 287 287 287 287 286 286 286 286 286 286 285 286 285 285 285 286 286 286 286 286 287
284 284 282 285 284 282 286 293 292 292 292 288 287 284 286 284 282 279 278 286 282 280 277 277 275 281 288 290 289 288 288 288 288 288 287 286 285 285 285 285 285 286 286 286 286 286 286 285 285 284 284 284 284 284 284 286 287 286 287 286 286 285 285 285 285 285 285 285 286 285 285 286 286 286 286 285 284 283 283 284 284 285 285 285 286 286
289 286 283 282 284 285 288 292 296 295 293 292 291 287 289 286 284 281 276 280 282 280 281 278 278 280 286 287 287 285 285 285 287 287 285 285 285 284 285 285 286 286 285 286 285 285 285 285 285 284 283 284 283 284 283 284 286 286 285 285 284 285 284 285 286 287 287 286 285 284 285 285 284 284 284 284 284 284 284 284 284 284 284 284 285 286
291 283 281 283 286 289 290 292 292 292 292 289 289 288 286 284 284 283 282 280 277 279 278 279 277 281 288 287 284 283 283 282 283 284 284 284 284 284 284 285 284 284 285 285 285 285 285 283 283 284 283 284 284 283 284 285 285 285 285 285 285 284 285 284 285 286 285 285 285 284 283 283 283 283 283 284 284 284 284 284 284 284 283 283 283 284
285 285 283 279 280 282 284 286 286 287 287 284 284 286 285 285 286 286 285 284 279 280 281 278 273 281 288 287 286 285 284 284 285 286 285 283 284 283 283 284 283 283 284 283 283 284 284 282 282 284 283 283 284 284 284 285 285 284 284 285 284 285 285 285 285 284 284 284 284 284 283 282 282 281 282 282 283 283 283 284 284 284 283 283 283 283
286 284 282 278 276 274 274 275 276 280 283 284 285 284 287 286 284 282 280 282 277 282 282 278 276 284 289 288 287 287 285 285 285 285 285 285 284 284 284 284 284 283 282 282 282 282 282 283 283 282 282 283 282 282 282 282 282 282 283 283 283 283 283 283 283 283 282 281 281 282 281 281 281 281 280 281 282 282 283 283 283 283 283 283 283 282
282 284 284 282 280 278 280 281 283 285 283 281 283 283 284 285 285 284 282 279 276 279 278 280 281 281 282 285 286 286 286 284 283 283 283 284 284 284 284 284 284 283 282 282 282 282 282 280 280 282 281 282 281 281 281 281 281 280 281 281 281 281 282 282 281 282 281 281 280 280 280 280 280 281 281 281 281 281 280 281 281 281 282 282 282 282
284 282 284 284 283 284 285 285 286 286 282 284 283 282 283 282 281 280 278 276 281 278 273 281 282 278 280 282 283 284 285 284 283 283 283 282 283 283 283 283 286 282 282 282 281 281 280 280 280 280 280 281 281 281 280 280 281 281 280 280 280 280 280 282 281 281 281 280 280 280 281 280 281 281 281 282 282 281 281 280 280 281 281 281 281 281
279 277 280 283 280 284 285 285 286 284 283 282 282 281 280 281 280 277 277 280 280 275 273 278 280 278 280 283 284 285 283 283 281 282 282 282 282 282 281 280 281 281 282 282 282 281 281 280 280 280 280 280 280 280 281 281 281 281 281 280 280 280 280 281 281 280 280 280 280 280 280 281 280 280 280 281 281 281 281 281 281 281 281 281 281 282
281 277 279 282 278 281 282 282 283 281 280 280 280 281 281 281 280 280 279 280 280 278 280 280 279 279 282 282 284 282 282 281 281 282 282 281 279 279 279 278 278 279 278 279 279 280 280 280 280 280 280 280 280 280 281 281 281 281 281 281 281 281 282 281 280 280 279 280 280 280 280 280 280 281 281 281 281 281 281 282 282 282 281 281 281 281
281 276 283 277 274 273 278 280 280 279 276 276 278 279 279 280 279 279 279 279 279 278 279 279 278 277 281 281 281 282 282 281 281 280 279 280 279 278 278 278 279 279 280 279 279 279 279 280 279 279 279 279 279 279 280 281 281 282 282 281 281 281 282 280 280 280 279 280 280 280 279 279 280 280 280 280 280 280 280 281 281 281 281 281 281 281
280 274 279 275 273 273 277 275 275 276 276 275 275 277 277 277 275 277 276 278 277 275 277 276 274 275 278 279 281 280 279 278 278 278 279 279 279 278 278 277 278 278 279 279 279 279 279 279 280 280 279 279 280 281 281 281 281 281 282 282 282 282 282 281 280 280 280 280 280 280 280 281 281 280 280 280 280 280 281 281 280 280 280 280 280 281
280 277 276 276 274 274 278 273 273 273 271 269 271 275 277 277 278 279 279 280 279 279 275 272 274 275 276 279 277 277 277 277 277 278 278 278 279 278 277 278 278 278 279 279 278 279 278 279 279 279 279 280 281 281 281 281 281 281 282 281 280 281 281 280 280 281 281 281 281 281 281 281 280 280 280 281 281 281 281 280 280 280 280 280 280 280
280 280 277 279 272 272 274 270 273 269 264 266 276 279 279 277 277 276 276 278 279 280 276 275 274 275 275 276 276 275 276 276 278 278 280 279 278 277 278 278 279 279 279 279 279 279 279 279 279 280 279 280 280 280 280 280 281 281 281 280 279 279 279 279 279 279 279 279 279 280 280 280 280 280 280 280 280 280 280 280 280 280 280 280 280 280
274 277 274 276 273 270 270 267 267 264 266 275 279 280 281 279 278 275 277 278 278 279 278 278 277 278 278 277 277 277 277 278 277 277 278 280 280 280 279 279 279 278 278 279 279 279 279 279 278 278 279 279 279 279 279 279 278 278 278 278 278 278 277 277 277 277 278 278 278 278 279 279 278 278 279 279 279 279 279 279 279 279 280 280 279 279
274 275 275 274 274 274 272 270 264 264 274 277 277 278 280 279 277 277 275 278 279 279 279 277 278 279 278 277 277 278 277 277 277 278 279 280 281 281 279 279 279 278 279 279 279 279 279 278 278 277 277 278 278 277 277 276 277 276 276 276 276 276 276 275 275 275 276 276 276 276 277 277 277 277 277 277 277 277 277 277 277 277 278 279 279 279
279 277 276 272 277 268 271 270 269 275 274 276 276 277 277 275 275 274 268 272 278 277 278 277 277 277 276 276 276 277 277 277 275 276 279 279 280 279 280 280 280 280 279 279 279 279 279 278 277 277 277 276 276 276 275 275 274 274 273 273 274 273 273 273 273 273 273 274 274 275 275 275 274 274 274 274 274 274 274 274 274 275 276 275 276 276
281 276 277 273 271 276 269 268 269 268 265 270 277 277 279 279 277 277 272 266 274 273 276 275 274 272 273 275 275 276 277 272 271 274 277 278 279 280 280 281 280 279 279 279 279 278 278 277 276 276 275 274 274 273 273 272 272 272 271 271 272 271 271 270 270 271 272 272 272 272 272 272 272 272 272 271 270 270 270 270 271 271 272 272 273 273
276 278 277 275 272 273 270 267 266 265 267 270 270 273 278 278 278 275 270 267 271 268 272 275 273 272 274 274 275 276 272 267 269 274 277 277 278 279 279 279 278 278 278 278 277 276 275 276 276 275 274 273 272 272 271 271 270 270 269 270 269 269 268 268 269 270 270 270 270 270 270 269 269 268 267 266 266 266 266 267 267 269 270 271 272 272
269 271 272 272 272 272 270 267 265 267 264 270 271 276 277 277 278 271 263 263 273 270 274 274 273 275 274 275 275 273 271 266 270 274 277 278 279 278 278 278 277 277 277 276 275 276 275 275 274 273 272 271 270 270 270 269 269 268 268 267 267 266 267 267 268 269 268 268 268 267 266 266 265 265 265 264 264 264 264 265 266 266 267 267 268 269
266 266 271 269 271 271 273 269 271 270 273 273 274 276 277 278 274 264 262 267 273 273 275 275 276 276 276 275 275 270 274 276 276 277 277 277 277 277 277 278 277 276 275 275 275 277 273 273 272 271 270 270 269 269 268 268 266 266 266 266 265 265 266 267 267 266 266 265 265 264 264 264 263 263 262 262 262 263 263 263 263 264 264 264 266 266
267 266 267 269 268 267 268 268 268 270 274 275 277 278 278 273 264 265 271 275 276 274 276 276 275 276 276 276 275 275 276 277 277 277 276 276 277 277 276 275 275 275 275 275 276 273 271 271 270 270 269 269 268 267 266 266 264 264 264 264 263 264 265 265 265 264 264 263 263 262 262 261 261 262 261 261 261 261 261 262 262 262 262 263 263 263
268 265 263 266 269 269 269 266 266 262 272 276 276 274 277 268 269 273 273 276 276 276 276 276 277 277 277 275 276 276 276 276 276 276 276 276 277 276 275 274 274 273 273 272 271 271 270 269 268 268 267 267 266 266 265 264 262 263 263 262 263 264 264 264 263 263 262 262 261 261 260 260 260 260 260 260 260 260 259 260 260 260 261 261 261 261
272 263 265 268 272 263 267 265 266 274 276 275 275 269 272 277 278 276 276 273 276 277 277 276 276 277 276 276 275 275 275 275 275 275 275 276 275 274 274 274 273 272 272 271 270 269 267 267 266 266 266 265 265 264 264 262 261 261 261 261 263 264 263 263 262 261 260 260 260 259 259 259 259 259 259 259 259 259 258 258 259 259 260 260 260 260
274 270 272 268 272 268 265 270 276 279 279 279 278 278 278 278 279 276 276 277 277 277 277 276 276 276 277 276 276 276 275 275 275 275 275 274 274 274 273 273 272 271 270 269 268 267 265 265 264 264 264 264 263 263 262 261 260 260 260 261 262 262 261 261 261 260 259 259 259 259 259 259 259 258 258 258 258 258 258 258 258 258 259 260 260 260
275 275 274 274 273 276 275 276 277 276 277 276 280 280 279 279 279 277 277 276 277 278 278 277 276 276 276 276 275 274 275 275 274 274 274 273 273 273 273 272 271 270 268 267 266 265 264 263 262 262 262 262 262 262 261 261 260 259 260 262 262 261 261 260 259 259 259 258 258 258 258 258 258 258 258 258 258 258 259 258 259 259 259 259 259 259
275 276 274 272 275 270 264 276 274 275 277 276 277 278 279 280 280 280 278 278 279 279 278 277 277 276 276 275 274 274 274 273 273 272 273 272 272 271 270 270 269 267 266 264 265 264 263 262 261 260 260 259 260 261 261 260 261 261 261 261 261 261 260 259 259 258 258 258 258 258 258 257 257 257 258 258 258 258 259 259 259 258 259 258 258 258
271 278 274 274 273 272 270 275 275 276 277 277 277 276 277 278 279 279 279 279 278 278 277 276 275 274 274 272 273 273 273 272 272 271 271 271 270 269 269 268 266 266 265 264 264 262 260 260 259 259 259 259 260 260 260 260 260 260 260 261 261 260 259 258 258 258 257 257 257 257 257 257 258 258 257 258 258 258 258 258 258 258 258 258 258 257
275 277 270 271 271 274 275 276 277 277 277 278 278 278 278 279 280 279 279 276 275 275 274 274 274 274 274 273 273 272 270 270 270 270 269 269 268 268 267 266 265 264 264 263 262 260 260 259 258 258 258 259 260 260 259 259 260 260 260 260 260 259 258 258 258 258 257 257 257 257 257 257 257 257 257 257 257 257 258 257 257 258 258 260 260 259
275 272 276 272 268 269 270 274 276 270 270 276 277 278 279 280 280 279 276 274 274 274 273 273 272 272 272 271 271 270 268 268 269 268 267 267 266 265 265 264 263 263 262 262 261 259 259 258 258 258 258 259 259 259 259 259 259 260 260 260 259 259 258 257 257 257 257 257 257 257 257 257 257 257 257 256 256 256 257 261 264 263 261 261 265 268
275 276 275 272 272 271 276 277 278 277 277 278 278 279 278 278 278 276 275 275 275 274 274 273 271 269 269 269 269 268 268 268 267 266 265 265 265 264 263 262 261 261 261 260 259 258 257 258 258 258 257 258 259 259 259 259 259 259 259 259 259 259 258 257 257 257 257 257 256 257 257 257 256 256 256 256 256 256 256 257 258 264 266 267 267 268
Wind_Speed
5 4 5 5 6 10 10 11 11 11 10 12 10 8 9 9 7 7 8 7 5 7 7 7 7 7 8 10 13 14 15 12 10 8 7 11 6 5 9 8 13 14 12 9 12 12 12 11 11 10 10 10 11 12 13 13 13 13 11 9 5 4 4 3 2 2 2 1 0 0 1 1 1 2 1 1 2 2 3 3 4 5 6 6 6 6
3 5 5 7 11 12 13 11 10 11 9 8 6 6 8 4 9 6 9 7 8 3 2 5 6 6 7 11 17 18 11 13 10 10 12 5 7 6 9 12 12 10 9 12 12 12 12 12 11 9 10 11 14 13 12 12 12 12 12 11 9 5 5 5 4 3 2 1 0 1 1 1 1 2 2 3 2 3 2 2 3 4 5 5 6 6
3 7 7 12 12 11 10 9 9 9 8 6 6 5 6 6 9 10 12 6 1 1 5 4 5 6 9 16 18 15 13 11 10 9 7 3 7 9 11 11 12 13 12 12 11 11 12 12 11 10 11 12 11 11 12 10 10 11 10 10 8 8 7 6 5 6 3 2 2 1 1 0 1 1 3 4 3 3 4 2 3 4 5 6 6 7
6 5 17 14 8 9 8 8 8 8 7 4 4 4 6 5 5 4 3 3 2 3 5 6 10 6 12 15 14 15 9 9 7 4 16 15 13 13 13 12 12 13 12 13 12 12 12 11 11 13 14 12 11 11 12 12 11 10 10 9 9 9 8 9 8 6 6 5 5 5 5 6 5 2 3 3 2 1 1 2 3 4 4 5 6 6
9 5 0 3 5 6 8 6 6 5 6 3 5 6 6 7 5 6 4 5 6 7 8 6 5 5 11 12 7 4 4 3 1 15 16 14 12 12 14 16 14 14 11 11 11 12 12 14 14 13 12 11 13 13 12 11 11 9 11 10 9 9 9 8 9 8 6 6 4 3 3 4 4 3 3 2 1 1 1 1 2 3 4 4 5 6
10 8 9 6 4 4 4 4 8 4 6 5 5 8 9 7 6 4 6 7 3 4 1 2 5 3 3 3 9 9 2 1 7 16 14 10 10 11 13 12 12 12 10 10 11 10 10 11 11 13 13 14 13 13 11 10 10 10 10 10 9 9 9 9 8 8 6 6 5 4 2 2 1 2 1 4 4 4 4 5 3 2 4 4 4 4
2 3 1 3 3 3 2 5 6 1 5 3 3 1 2 1 2 3 4 3 3 2 2 1 1 6 1 8 7 8 8 5 9 14 12 10 11 11 11 10 10 10 9 9 11 11 12 11 11 12 12 11 12 11 9 8 9 10 11 10 10 9 8 8 9 9 8 7 7 6 5 4 4 4 3 2 2 3 4 5 4 4 3 4 4 4
4 3 4 1 1 2 3 6 6 7 4 4 0 3 3 3 2 2 2 3 6 4 6 5 4 7 5 4 9 10 7 11 12 11 12 10 12 12 11 11 10 9 8 9 9 9 9 9 10 11 11 11 11 8 8 8 9 11 11 10 10 9 9 9 9 9 9 7 6 6 6 6 5 4 4 4 5 5 3 2 2 3 3 3 4 4
1 3 2 3 3 3 6 7 2 7 5 2 0 5 2 2 2 2 3 5 4 5 6 6 5 1 5 5 12 13 4 9 11 9 10 11 10 10 11 11 9 9 9 8 8 8 7 8 9 8 9 7 8 9 9 9 9 9 9 10 9 10 9 9 10 9 10 9 8 7 7 7 7 6 6 6 7 6 4 1 0 1 1 3 4 4
1 2 5 6 5 6 6 4 1 5 4 1 0 2 0 1 2 4 4 3 3 1 6 2 6 4 8 6 7 2 11 9 9 9 9 9 11 8 9 9 8 6 6 6 7 6 7 6 6 4 4 8 9 9 9 9 9 10 9 11 11 11 9 9 10 10 10 9 8 8 8 7 7 7 6 5 5 5 6 5 2 1 1 2 3 4
2 1 4 2 6 3 2 1 1 3 2 2 0 1 3 4 5 3 3 2 2 3 8 7 10 7 4 7 2 2 3 12 11 8 9 10 10 10 8 8 7 5 6 6 6 6 6 5 6 7 11 10 11 10 11 9 9 9 9 9 12 12 10 10 11 10 10 8 8 7 8 7 7 7 6 6 6 5 6 6 6 4 3 3 4 4
3 1 0 3 3 0 3 1 3 1 1 2 1 1 3 7 1 1 1 3 0 5 5 5 11 10 4 3 7 6 7 11 13 13 11 10 10 10 7 5 6 5 4 5 5 5 6 7 9 9 10 10 9 9 9 8 7 7 8 9 12 13 13 11 11 11 10 9 9 7 7 7 7 7 6 7 6 6 5 5 5 6 5 3 2 3
4 7 5 3 2 6 1 0 0 1 1 3 1 1 0 3 1 2 3 2 4 6 2 6 2 4 6 5 2 11 8 8 8 10 12 11 10 9 8 6 4 3 4 4 5 5 5 6 7 7 7 6 7 7 7 7 6 5 6 9 12 13 12 11 11 12 11 11 10 9 8 7 7 7 7 6 7 6 7 6 6 6 6 6 6 3
4 3 5 3 2 3 4 5 2 1 3 4 4 4 2 1 1 3 3 3 3 1 2 3 6 1 2 1 8 11 9 9 12 12 9 10 11 9 6 5 3 3 4 5 5 4 6 5 5 5 4 5 5 6 6 6 6 7 9 10 11 10 10 10 11 11 11 11 11 10 9 9 7 7 6 7 7 7 7 7 7 6 6 6 5 5
6 5 3 4 2 5 5 7 3 1 7 8 3 7 6 3 1 3 2 4 4 5 1 1 2 5 3 2 5 11 9 10 10 11 10 9 8 7 6 5 4 4 4 5 4 3 3 3 4 4 4 4 6 6 6 7 7 8 8 10 11 11 11 9 9 9 11 10 10 9 9 9 9 9 8 8 7 8 8 7 7 6 7 6 6 6
7 8 1 3 1 3 6 3 1 1 1 3 2 1 1 4 2 8 4 4 3 3 3 2 4 2 3 5 8 8 10 10 9 9 9 8 6 5 5 4 5 4 3 2 1 3 4 4 4 4 5 5 5 6 7 8 8 9 9 9 9 10 10 10 9 8 8 9 8 8 9 9 9 8 7 7 8 8 8 9 8 8 7 7 7 7
0 4 1 1 2 3 1 1 1 1 1 1 3 2 3 1 1 3 3 3 3 3 10 3 4 6 7 7 6 7 9 8 7 8 7 6 5 4 5 4 3 3 2 1 2 3 4 5 5 6 6 7 7 8 8 8 8 9 9 10 10 10 9 11 10 9 9 8 8 9 9 9 9 9 8 8 8 9 9 9 9 9 9 9 9 8
3 3 1 3 3 0 1 2 2 2 0 4 0 3 2 1 1 2 5 3 5 8 7 4 5 4 3 4 4 6 10 6 7 5 6 6 4 4 4 3 3 3 3 2 3 3 4 4 5 5 5 6 6 6 7 8 7 7 7 8 8 8 9 9 9 9 8 9 8 8 9 9 9 8 6 6 6 6 8 8 8 8 9 9 9 9
3 5 5 4 2 1 2 1 3 3 1 3 3 0 1 2 3 2 1 3 5 6 5 4 8 9 8 6 6 4 9 7 6 6 6 5 4 4 4 3 3 2 3 2 2 4 3 4 4 4 5 5 5 5 5 5 7 8 7 8 7 8 7 7 6 5 5 5 5 5 5 4 3 3 3 4 5 7 8 9 8 9 8 9 9 9
1 2 2 2 2 2 1 2 2 1 1 2 1 2 2 1 5 4 3 3 2 8 5 5 7 5 2 2 6 7 7 6 6 4 4 4 4 4 3 3 3 2 2 2 3 4 4 4 4 4 4 5 5 5 5 5 5 7 7 7 7 7 6 7 7 7 6 5 4 4 3 3 2 4 6 8 9 9 9 8 8 8 8 9 8 8
1 1 4 1 0 2 2 2 3 2 2 0 1 2 0 2 1 1 1 3 4 4 5 4 6 4 2 4 4 7 6 5 6 6 4 4 3 4 3 3 2 1 2 2 2 2 2 2 3 4 4 4 4 4 4 4 4 3 3 5 5 5 6 6 6 5 5 4 5 5 6 7 8 10 9 9 8 8 7 7 7 7 7 7 8 7
0 2 5 4 3 3 2 1 1 2 2 1 2 2 2 0 3 3 8 1 2 4 6 6 10 3 0 2 4 5 4 5 4 5 6 4 5 4 4 2 1 1 0 1 0 0 0 1 2 2 3 3 3 3 3 4 3 2 1 2 2 3 3 3 3 3 3 4 4 5 5 7 7 7 8 8 7 7 7 6 6 6 7 7 8 7
2 0 1 6 6 6 3 1 3 2 2 1 2 5 5 3 2 1 7 5 3 3 1 3 6 6 2 4 3 2 3 4 2 3 3 4 4 4 3 2 0 1 2 1 2 2 2 3 3 3 3 4 4 4 4 4 3 3 3 3 3 2 3 3 4 4 4 4 5 6 6 6 6 5 6 7 7 7 7 6 6 6 6 7 8 7
8 1 1 6 7 9 9 5 5 5 3 9 2 2 0 4 3 6 5 1 2 2 6 6 10 2 1 2 0 2 2 3 1 1 3 3 2 3 3 2 3 3 3 4 4 4 5 4 4 3 3 4 4 4 4 4 3 3 3 3 3 3 4 4 4 4 5 5 5 5 4 5 5 5 5 5 5 5 6 6 5 5 6 6 6 8
1 3 1 1 5 5 7 2 4 5 4 2 1 2 1 2 3 2 1 2 4 5 9 5 8 4 2 4 3 3 2 2 4 3 4 3 3 3 3 3 3 4 4 5 5 5 5 4 4 4 2 2 1 1 2 2 2 2 3 3 3 3 3 4 4 4 5 5 6 7 6 5 4 4 4 4 4 4 4 4 5 5 5 6 7 6
3 3 3 3 6 5 4 3 1 1 2 1 1 3 3 2 3 1 3 3 7 4 9 2 3 3 1 3 5 6 5 4 3 3 3 4 4 5 4 4 4 2 1 1 0 1 1 1 1 1 0 0 0 0 1 1 1 2 2 2 3 3 4 4 4 4 4 5 4 5 5 5 4 4 4 4 4 4 4 4 4 4 4 4 5 6
2 1 2 4 6 9 7 4 2 2 2 2 3 3 5 5 4 4 3 6 10 7 9 10 12 12 12 13 11 4 3 6 5 4 4 4 3 3 2 1 1 1 1 0 0 0 0 1 1 1 1 1 1 1 2 2 2 3 3 3 4 4 4 4 4 5 4 5 5 5 5 5 5 5 5 5 5 4 4 4 4 4 5 5 5 7
1 1 6 6 8 9 9 13 11 9 8 6 6 7 6 6 5 5 7 9 3 7 13 8 11 8 8 8 10 10 9 3 4 5 4 4 4 4 2 2 2 1 3 4 2 3 3 4 4 4 4 3 4 4 4 4 4 4 4 4 5 4 4 4 4 4 4 5 5 5 6 6 5 5 6 6 6 5 5 5 4 5 5 4 5 6
2 3 4 5 4 7 7 7 5 6 4 4 6 7 11 12 11 12 8 5 3 8 13 8 11 12 11 13 10 10 5 3 3 3 3 3 3 3 3 3 2 2 1 2 3 3 4 4 4 4 4 4 5 5 6 6 6 5 5 5 5 5 5 6 5 5 5 5 6 6 6 5 5 5 5 6 6 6 7 7 7 7 6 5 6 6
1 3 4 4 5 6 5 6 4 6 4 7 8 10 11 14 16 11 7 6 9 8 8 10 10 14 12 13 12 3 3 3 2 3 1 2 3 4 2 2 1 1 2 3 4 5 4 2 1 2 3 4 5 5 5 5 5 5 5 6 6 5 6 5 5 5 5 5 6 6 5 6 5 6 6 7 8 8 8 8 9 9 9 9 8 8
2 5 2 3 2 4 5 5 1 3 3 8 10 14 16 18 14 10 11 12 10 10 13 14 14 17 9 1 2 2 2 2 2 1 3 1 4 3 2 1 1 1 1 2 2 3 4 5 5 4 4 5 5 4 4 4 5 5 6 5 5 5 6 5 4 4 5 6 6 5 5 5 6 6 7 8 7 7 8 9 9 9 10 11 10 10
1 2 3 1 3 6 7 2 1 4 6 8 12 19 21 15 13 10 12 6 9 11 10 8 8 8 1 0 2 4 3 3 1 2 1 2 2 2 1 2 2 1 1 1 2 3 4 5 6 6 6 6 6 7 6 6 6 5 6 6 6 6 5 6 6 6 6 6 6 6 7 7 8 8 8 7 7 8 8 8 8 8 9 9 10 11
1 1 0 2 6 8 11 2 2 1 3 7 15 23 16 12 12 10 9 11 12 10 10 10 10 3 3 2 2 1 4 1 2 2 2 3 1 1 3 3 2 1 0 1 2 4 4 4 4 4 5 5 5 6 6 5 6 6 6 4 4 6 7 8 9 9 9 8 8 9 9 9 9 10 9 9 10 9 8 9 9 10 10 10 10 8
2 2 4 3 5 4 6 1 1 2 4 15 4 2 7 8 7 8 9 8 7 6 5 4 5 4 5 3 5 1 2 1 0 2 1 1 3 4 4 3 1 1 1 2 2 3 3 4 3 4 5 5 6 6 6 5 5 5 5 5 7 7 8 8 8 7 8 9 9 9 10 10 10 10 10 9 9 9 10 11 11 10 9 8 8 10
4 5 5 3 5 7 2 3 2 9 15 7 4 4 1 4 2 6 9 10 11 10 9 9 4 6 5 4 3 2 1 2 3 4 4 6 3 4 4 3 1 1 2 1 2 2 2 3 4 4 5 4 4 4 5 6 5 6 7 7 8 7 7 7 9 9 9 10 10 10 9 10 11 11 11 11 11 10 10 10 10 10 10 9 10 11
5 5 3 3 3 2 3 7 7 11 5 2 5 3 4 1 6 5 9 9 10 9 8 5 2 7 5 4 3 0 0 3 3 4 6 7 5 6 5 2 1 2 1 1 1 1 3 2 3 4 4 4 3 4 4 6 7 8 8 8 7 8 9 9 10 10 10 10 11 11 11 11 10 11 12 13 13 13 13 13 12 13 12 12 11 11
6 3 4 5 6 7 7 9 14 9 13 15 12 6 6 7 5 7 7 5 2 1 1 5 7 6 4 3 3 0 1 2 4 6 5 2 5 5 2 0 1 0 1 2 3 2 1 3 4 3 3 3 4 5 7 7 8 9 9 9 9 9 10 10 11 11 12 12 12 11 10 11 12 13 14 13 13 13 13 14 15 14 11 13 13 14
7 9 6 5 5 8 7 7 8 7 11 8 1 2 2 3 4 1 4 4 5 5 4 4 8 5 4 3 2 0 0 2 6 5 1 4 3 3 2 1 1 2 4 3 2 2 1 2 2 2 4 5 5 6 7 8 9 9 10 10 10 10 11 11 12 12 12 12 10 11 12 11 11 12 13 13 14 15 15 15 14 14 14 13 15 15
3 1 4 8 3 5 7 8 7 9 7 3 3 3 2 1 4 1 2 6 1 0 1 8 7 5 4 3 1 1 1 1 5 6 3 3 2 1 2 3 3 4 3 3 2 2 3 3 4 5 6 5 5 7 9 10 9 9 10 10 10 11 12 12 12 11 12 12 12 12 11 11 12 13 13 14 14 14 15 15 14 13 13 12 13 14
4 3 4 6 9 9 7 8 9 3 4 1 2 1 1 2 4 6 4 4 1 3 1 5 6 7 4 4 3 2 3 4 6 7 1 3 2 4 1 1 3 4 4 3 3 3 4 5 6 5 5 5 6 8 9 8 9 8 10 10 9 10 11 11 11 12 12 12 12 11 11 11 12 12 12 13 14 13 14 13 13 14 12 15 13 14
2 2 5 11 11 12 14 8 4 7 3 4 5 5 4 2 3 2 11 5 3 5 4 3 1 2 1 1 3 3 6 6 5 4 3 3 3 2 2 2 2 2 2 3 3 5 5 5 5 4 4 4 7 8 8 8 9 10 10 10 9 9 10 11 11 11 10 11 11 11 11 11 11 14 14 12 13 13 13 11 12 13 14 15 13 14
0 2 3 4 9 9 8 10 10 7 4 3 5 9 5 3 2 9 3 2 8 5 5 4 3 4 5 6 5 6 5 4 3 2 3 3 2 1 2 3 2 2 2 4 6 6 4 4 4 4 4 4 8 7 6 8 9 9 10 9 9 9 10 11 11 11 11 12 12 12 12 12 12 12 12 13 11 12 13 10 12 13 14 12 13 15
7 6 5 6 4 4 4 8 7 9 1 5 3 5 2 4 5 3 2 1 5 6 5 4 6 7 5 5 5 5 5 3 2 3 4 4 1 0 2 2 3 2 3 3 4 5 5 6 6 6 5 6 6 6 7 7 9 9 9 9 11 10 10 10 10 11 11 12 13 13 13 13 13 13 11 12 12 13 14 11 11 12 13 13 15 15
3 4 3 5 5 4 8 9 7 1 5 4 6 5 4 6 5 3 6 4 5 6 7 6 6 6 5 4 4 4 4 3 4 4 3 1 1 2 2 2 2 3 2 4 4 4 5 5 5 7 7 7 5 6 6 7 9 8 9 11 10 11 10 11 11 11 12 12 13 13 13 13 13 12 12 12 13 13 13 14 12 12 11 12 12 12
5 8 6 7 4 6 6 4 0 7 6 5 7 8 7 5 4 5 4 6 7 7 5 6 5 4 4 4 5 4 4 4 5 3 1 1 0 1 1 1 1 2 3 3 3 4 4 6 8 10 9 7 7 6 6 5 7 10 11 11 9 10 11 12 12 12 13 13 13 13 13 13 13 13 13 12 12 13 12 13 12 12 10 11 12 12
3 4 4 4 9 6 4 5 3 3 5 4 7 8 7 6 7 6 5 5 5 7 6 6 5 4 3 4 4 4 5 5 4 2 0 0 0 1 1 1 2 3 3 4 4 5 4 6 6 7 10 10 7 8 4 4 5 10 11 10 10 10 11 12 13 14 14 14 13 13 14 16 15 13 12 13 11 11 11 12 12 11 12 11 12 12
6 7 7 9 7 5 3 2 3 6 8 6 6 6 6 7 9 7 7 7 7 6 5 5 6 4 4 5 6 6 5 4 3 3 1 1 1 0 1 1 2 3 4 4 4 6 7 6 8 8 9 11 8 6 5 5 6 7 9 10 10 10 11 12 13 15 14 14 14 14 13 14 13 13 12 11 11 10 10 11 11 11 12 12 13 13
7 8 10 12 9 9 7 5 8 9 7 6 6 5 7 7 8 8 8 6 5 5 6 6 5 4 5 5 6 5 6 4 4 4 2 1 1 1 1 2 3 3 3 4 5 5 5 5 7 9 9 10 9 7 7 7 8 8 9 9 10 11 12 13 13 14 15 16 14 13 13 13 15 15 12 11 11 11 11 10 11 12 12 12 13 13
4 1 7 3 6 7 5 8 12 9 9 12 11 7 7 9 11 11 7 4 6 6 5 4 4 6 7 7 5 5 5 4 3 2 1 1 1 1 1 2 3 3 4 5 4 4 6 6 8 7 8 10 9 9 8 8 8 7 9 10 10 11 12 13 14 14 15 14 13 13 12 11 12 12 12 12 12 11 11 12 12 13 14 14 12 13
5 12 12 1 2 3 7 10 5 4 8 9 9 11 11 12 12 9 4 5 6 6 6 6 4 2 3 3 5 5 5 4 2 1 1 0 1 2 2 3 3 4 4 4 4 5 5 6 6 8 10 10 8 8 9 9 9 9 9 10 10 10 12 14 14 14 14 12 12 12 12 11 11 12 12 12 12 12 12 15 23 19 16 15 21 30
11 16 9 8 8 10 10 9 8 10 11 10 11 8 7 6 6 6 8 9 8 7 8 8 7 4 4 2 3 3 3 3 1 1 0 0 1 2 2 3 4 5 6 5 6 5 4 5 7 8 9 9 7 8 9 10 11 10 10 9 10 11 12 13 13 13 13 12 11 13 13 12 12 11 11 12 12 12 13 12 12 21 28 27 27 28
Wind_Direction
140 179 190 195 211 227 235 232 236 241 241 250 256 255 254 269 279 290 279 286 274 288 269 279 296 313 309 292 279 267 265 273 278 279 277 264 301 57 87 78 75 67 67 64 59 51 39 30 26 26 27 28 32 28 24 26 24 18 17 20 34 63 38 62 58 63 90 101 46 6 135 201 168 205 181 200 236 204 202 177 176 161 171 175 185 195
128 214 221 213 220 232 242 253 266 280 284 293 302 297 291 282 280 272 293 292 294 300 300 306 298 289 291 291 280 275 286 280 276 264 256 293 78 86 73 71 71 76 64 50 46 40 36 27 24 24 29 26 31 25 25 29 29 24 20 17 8 23 42 32 47 70 70 79 149 143 205 185 202 178 187 230 227 226 219 169 161 158 171 168 181 186
202 222 232 231 227 240 254 262 269 274 277 275 278 301 302 283 275 278 267 267 318 108 269 298 293 283 282 270 271 280 276 269 265 248 268 88 78 66 72 71 66 59 52 45 42 39 36 29 28 31 30 30 28 23 26 24 34 31 25 18 12 13 26 29 29 34 41 28 11 59 355 120 252 190 169 185 195 187 209 197 169 164 168 167 178 186
233 210 237 236 235 247 251 252 261 265 260 258 276 282 261 262 275 300 274 350 342 353 301 282 279 283 271 266 269 271 266 259 254 29 66 70 69 64 62 61 61 55 47 45 35 34 28 28 30 34 33 27 24 22 21 21 26 26 26 21 18 18 22 24 15 28 19 14 22 30 46 32 51 63 3 42 40 56 124 221 198 183 167 174 184 186
225 233 291 164 229 221 246 260 271 266 269 238 219 231 252 264 251 245 296 340 322 296 272 289 275 259 257 265 283 276 224 231 279 87 80 76 77 80 74 64 55 55 48 44 41 32 29 27 26 28 30 31 31 22 20 17 18 23 24 20 21 23 24 12 14 15 23 11 14 28 29 31 4 3 21 34 334 312 225 230 214 215 170 180 184 184
252 252 261 252 226 254 265 271 248 237 275 268 248 237 246 264 286 333 340 344 342 305 4 50 339 241 269 345 323 295 258 288 60 88 83 76 78 71 70 72 70 66 51 45 41 39 34 36 30 26 26 33 29 23 12 10 15 24 26 23 23 28 22 10 5 8 16 17 13 12 30 7 344 294 273 250 242 235 218 213 210 196 191 190 191 191
252 73 74 173 211 211 237 248 256 223 247 260 263 99 357 22 3 322 322 29 303 235 271 176 311 278 235 276 260 261 251 103 65 73 81 73 66 63 61 63 62 65 65 50 41 31 32 27 33 34 32 31 33 22 7 1 12 27 31 27 25 28 21 10 5 6 16 15 19 12 6 10 351 349 303 316 294 242 229 192 197 204 205 202 197 212
194 193 71 42 156 192 211 243 243 207 213 256 352 357 22 9 350 339 333 246 252 263 268 259 217 255 281 251 255 248 243 100 88 84 80 82 80 75 72 55 55 53 57 66 61 45 30 25 27 32 28 29 30 21 8 5 9 22 30 31 29 29 22 14 9 10 14 19 13 9 4 3 359 356 328 328 327 337 22 60 186 175 198 208 208 215
177 153 129 148 183 186 213 217 238 178 179 194 341 54 16 21 321 302 262 253 251 313 282 203 193 274 248 230 232 234 133 93 92 96 91 88 79 75 73 78 64 51 42 43 48 48 45 34 28 29 30 28 30 26 19 11 6 11 20 32 36 36 28 15 15 17 15 20 13 15 14 8 350 354 343 345 344 341 350 11 354 159 206 191 216 219
344 138 186 180 154 207 221 233 235 152 212 147 132 101 257 217 244 223 235 263 301 271 269 167 183 212 284 259 267 110 95 119 123 106 96 74 80 75 73 66 70 66 58 50 46 43 37 35 38 29 34 35 34 29 21 14 12 11 11 25 33 32 27 17 19 22 23 22 20 15 10 6 349 349 343 350 345 345 343 345 313 225 209 200 206 231
234 344 10 240 204 217 108 107 55 45 82 157 84 348 296 244 232 238 231 248 309 244 253 213 203 174 305 305 9 89 194 145 127 112 105 102 84 74 58 59 55 41 49 48 47 37 35 26 28 25 30 23 25 25 20 14 13 9 11 15 31 30 25 19 18 21 25 22 21 18 9 5 360 352 349 354 349 350 352 348 338 320 250 220 206 209
229 91 141 251 256 54 121 70 9 72 42 66 37 37 341 299 172 130 246 125 140 273 269 250 175 190 155 275 56 30 54 129 137 137 126 109 102 96 90 66 58 56 41 46 36 26 28 23 21 23 25 22 19 21 17 8 0 3 9 16 30 29 23 19 15 18 22 22 19 19 11 3 357 356 357 352 345 343 345 341 336 331 342 318 274 200
192 210 207 183 293 176 159 3 58 65 109 112 130 2 72 284 23 262 88 322 207 234 257 9 129 197 238 252 6 73 37 57 92 107 115 111 100 91 86 81 78 62 66 55 41 27 20 28 27 24 24 18 15 19 14 5 353 348 10 23 31 28 22 18 16 18 17 19 15 10 6 4 359 359 358 348 353 347 350 346 347 348 344 335 340 301
255 132 156 197 46 225 149 147 205 355 195 146 171 165 148 282 242 247 245 223 261 214 291 49 23 284 267 296 54 88 66 66 78 85 89 98 102 102 97 102 94 76 67 60 52 37 28 18 22 26 22 19 18 18 14 5 2 2 14 20 28 26 23 18 17 17 17 19 15 9 6 2 355 358 354 353 355 346 348 348 345 343 337 338 326 328
307 312 240 147 264 153 181 198 177 230 152 201 201 157 176 181 192 269 228 233 229 231 275 277 42 228 143 229 109 96 98 86 83 89 89 90 93 98 107 95 86 67 50 52 48 49 41 25 28 29 19 21 21 13 12 11 5 6 15 17 21 19 16 17 15 15 18 13 11 11 10 8 5 2 359 354 358 348 347 343 344 338 336 335 328 333
208 234 317 86 239 148 181 247 16 13 76 204 216 47 345 232 160 244 253 269 284 318 310 220 193 288 8 115 94 94 94 88 93 90 98 94 97 103 97 81 73 68 59 53 57 34 30 26 29 20 23 21 19 17 11 13 11 11 12 12 21 22 14 9 10 15 15 11 7 6 11 7 5 4 4 3 2 356 352 348 349 342 342 337 333 330
344 276 101 301 39 162 225 41 188 134 176 309 67 196 207 315 30 289 319 256 290 291 253 241 282 276 118 59 90 104 93 96 97 100 95 100 100 97 90 107 130 113 116 107 57 43 30 27 20 22 16 15 15 15 15 11 11 16 13 14 13 15 15 13 6 6 8 3 7 5 5 4 3 4 6 4 3 1 359 2 358 355 347 346 344 335
225 267 119 122 247 279 313 355 352 352 32 65 152 236 314 228 109 210 250 242 238 241 266 251 262 259 240 261 156 116 104 108 107 113 122 118 122 110 118 111 104 98 103 79 74 73 68 48 26 14 14 19 9 10 6 12 10 13 19 10 18 9 14 8 6 0 6 1 0 358 359 359 357 354 353 355 6 3 7 7 5 354 352 347 340 339
74 299 240 223 160 299 30 11 349 270 172 184 213 39 89 267 309 257 143 262 251 240 268 219 249 259 244 229 133 145 119 132 130 133 135 131 126 126 123 116 104 107 73 58 41 45 31 34 40 7 10 6 356 1 1 3 16 14 15 14 14 13 5 4 358 356 355 5 357 352 337 325 318 313 323 351 19 18 17 13 3 358 350 342 342 338
9 233 298 17 38 187 121 126 233 246 346 61 79 333 193 126 219 248 219 229 206 256 260 253 259 254 232 27 134 130 127 131 136 122 112 131 127 126 129 116 120 97 79 56 41 46 29 7 23 3 2 359 347 355 354 359 17 16 10 8 8 1 3 3 5 356 354 351 343 327 293 291 311 351 7 8 17 15 13 7 0 355 354 346 337 336
335 188 256 135 282 78 341 160 218 195 250 19 83 289 294 222 204 173 328 229 216 263 233 273 254 251 354 313 101 127 138 140 136 143 151 134 131 114 109 118 106 79 83 60 53 42 23 7 351 355 340 340 345 340 359 356 12 4 359 355 359 1 344 359 347 344 332 326 319 328 339 343 355 2 4 9 13 15 4 0 356 353 347 338 344 341
102 278 243 295 290 178 206 33 122 68 68 96 44 231 195 358 308 280 262 239 208 224 252 248 255 261 253 334 100 115 130 114 115 146 148 153 140 140 131 134 133 113 7 74 68 81 334 282 300 297 311 318 337 321 336 318 322 319 292 277 303 317 316 315 313 311 312 319 319 333 336 342 350 358 354 3 2 4 358 355 353 347 346 349 338 345
130 41 11 263 252 256 246 251 51 301 276 221 110 273 317 313 18 302 264 247 301 233 316 211 279 241 86 312 60 84 99 112 124 128 155 144 132 125 133 142 178 176 211 229 229 225 230 234 236 251 256 266 267 265 275 282 274 265 266 258 257 272 296 302 304 310 318 321 331 333 334 333 337 347 346 350 347 351 345 345 341 345 349 338 337 337
65 138 222 259 270 275 274 265 40 11 347 292 276 53 207 240 234 258 267 32 245 297 287 251 247 240 290 262 37 85 84 53 3 112 145 127 148 150 151 191 187 225 230 223 217 221 225 225 241 245 264 261 253 247 251 247 246 255 264 276 284 290 291 295 300 305 317 316 317 318 326 334 327 341 335 336 319 326 320 325 325 328 335 327 328 331
100 287 160 330 292 295 285 35 13 356 43 58 64 298 116 259 276 245 226 156 252 194 250 241 248 232 203 153 232 156 164 179 198 211 150 160 170 168 183 204 214 212 222 217 216 221 219 218 236 230 227 230 230 233 254 258 264 261 264 279 292 282 281 289 294 307 312 317 321 321 325 318 322 329 325 322 314 310 308 304 305 312 316 319 320 318
133 212 135 188 225 240 240 222 195 65 110 207 214 278 273 215 250 349 266 202 245 215 214 224 301 238 223 208 214 189 199 202 209 169 182 174 184 180 194 216 203 196 166 133 159 86 105 158 169 130 93 275 284 233 271 283 278 277 269 255 257 252 270 274 276 279 287 293 295 293 294 289 297 300 294 293 293 297 301 302 301 302 296 286 292 299
153 286 193 205 229 248 258 286 212 138 164 282 292 267 269 264 248 247 271 265 260 287 292 266 271 286 289 287 285 280 155 177 178 176 187 185 164 166 170 171 170 169 196 207 158 174 104 355 324 311 318 274 275 255 260 264 272 276 273 273 274 252 242 250 247 251 259 269 269 276 280 283 283 282 288 283 274 270 279 280 284 295 299 298 300 303
124 217 226 230 236 252 266 273 285 288 272 256 263 269 268 259 251 246 216 250 9 340 272 261 274 277 267 286 302 306 316 169 174 173 170 172 168 161 184 148 211 214 240 232 208 208 215 219 220 228 242 263 283 285 291 277 261 260 262 268 280 288 289 280 260 268 282 287 291 285 282 281 279 287 288 291 291 292 290 282 272 270 268 277 290 295
159 231 229 221 234 248 245 258 284 301 307 296 282 278 275 272 262 247 250 251 223 228 259 273 277 277 277 277 284 296 314 156 147 138 129 130 145 148 170 183 221 242 239 231 232 224 226 231 233 234 238 241 248 254 258 261 265 267 267 258 259 266 271 271 276 286 292 299 297 291 284 283 282 278 282 283 286 291 293 294 294 293 288 283 284 277
101 272 254 230 241 261 277 293 328 317 316 296 277 271 270 265 262 264 268 248 237 253 267 271 273 274 283 285 298 317 117 106 114 125 150 111 97 76 52 37 26 354 21 6 348 341 318 281 259 259 250 255 250 253 262 266 269 265 259 261 262 266 269 275 276 276 289 288 281 284 290 295 301 301 298 298 293 291 293 297 299 299 298 295 290 290
128 260 140 45 18 286 270 260 292 297 295 280 282 274 264 262 270 275 274 267 281 278 270 271 273 269 273 297 98 107 98 89 79 99 78 116 94 67 61 327 291 309 340 15 331 317 312 310 294 277 272 261 264 275 301 322 319 319 310 291 281 276 272 276 281 289 285 281 277 281 287 293 286 285 284 277 279 284 287 286 286 289 292 296 297 294
35 243 359 58 308 283 273 267 245 239 254 260 270 265 258 257 264 253 251 248 246 251 255 262 253 261 227 81 110 119 52 77 66 53 36 21 70 91 333 280 283 271 313 292 314 328 346 345 349 346 337 344 3 8 2 350 339 336 323 317 322 322 336 349 336 322 305 295 299 300 301 298 296 293 286 283 281 282 281 278 276 277 278 283 289 290
214 87 323 287 261 254 270 61 106 29 341 307 252 248 258 258 247 256 261 257 249 253 260 253 256 226 161 118 106 122 111 331 54 352 50 323 324 242 248 254 262 271 268 20 22 20 5 9 356 22 25 20 10 360 341 340 341 331 323 343 338 356 349 339 328 314 308 305 305 302 299 297 295 293 293 292 289 285 283 280 279 280 280 278 277 283
165 179 219 200 250 250 279 64 138 134 251 246 273 122 198 236 238 232 239 241 243 223 227 222 207 175 146 151 161 222 86 268 188 256 264 261 266 282 263 242 237 242 58 41 35 19 357 349 7 26 25 13 355 344 328 339 330 319 334 349 351 348 331 317 310 308 307 307 303 302 301 299 298 294 292 292 291 289 286 284 281 279 276 278 281 281
196 187 204 183 235 254 276 75 262 228 239 258 109 183 248 246 249 248 256 253 257 261 267 268 195 180 168 143 117 71 51 321 316 306 304 268 245 264 267 264 238 85 49 38 14 353 2 33 41 33 10 349 330 321 334 333 350 354 349 346 338 328 322 322 317 314 310 306 304 305 305 304 303 302 302 302 302 300 295 293 294 292 291 289 286 285
199 180 181 220 202 257 235 222 244 232 243 120 243 264 256 199 224 247 263 251 252 247 247 254 230 135 118 111 114 205 101 289 302 285 268 278 264 231 251 265 84 58 42 331 50 15 69 67 59 20 339 317 343 338 354 6 2 358 339 337 331 327 326 320 315 312 314 310 310 310 309 309 311 313 315 313 312 308 305 305 303 303 303 300 296 291
191 191 194 234 203 221 222 228 241 300 305 282 282 271 241 216 206 189 227 264 181 228 102 115 120 126 119 122 110 52 310 337 330 300 289 80 50 31 58 129 104 274 84 43 76 45 79 85 46 354 343 351 7 20 27 9 359 345 333 330 328 326 319 321 316 313 311 308 307 310 316 321 319 313 309 310 311 312 312 312 310 308 310 303 299 294
204 195 211 205 242 218 235 255 266 265 262 281 187 265 22 38 89 75 112 281 259 250 238 169 143 132 140 120 128 212 272 48 320 291 275 47 42 16 356 339 38 63 77 81 34 10 43 44 27 11 41 11 21 42 13 5 351 341 331 327 326 324 319 317 310 310 308 307 315 317 319 319 318 318 321 323 319 317 314 312 308 305 307 302 300 293
351 236 208 223 248 241 239 240 235 245 253 150 182 125 45 45 55 2 40 280 256 302 316 138 132 137 148 147 206 157 101 294 264 261 242 31 358 22 320 305 71 82 71 65 25 1 20 9 46 45 30 15 24 14 10 356 345 334 323 320 321 318 313 311 310 313 314 317 320 323 328 331 329 324 320 315 313 312 309 308 306 303 303 296 292 290
176 205 154 228 231 229 240 240 244 235 241 237 168 252 198 71 33 55 323 280 191 243 214 120 141 147 184 158 192 151 187 225 260 256 288 346 342 317 111 81 34 34 18 16 14 40 26 39 40 26 23 18 22 8 360 344 336 324 316 315 317 312 307 309 315 318 320 321 325 328 327 324 321 316 314 313 312 311 306 305 306 305 304 300 297 295
135 302 202 216 224 230 232 249 267 267 238 175 190 181 175 133 77 245 254 250 202 222 240 154 156 116 130 209 206 184 230 209 220 251 309 331 355 343 82 90 92 68 33 31 24 40 44 34 38 19 21 27 16 359 345 339 328 319 316 312 310 306 310 316 319 320 320 320 318 317 317 316 314 312 310 305 301 299 297 298 300 300 297 295 294 292
85 125 302 221 226 225 227 240 239 260 232 180 251 160 157 62 255 245 248 175 155 210 233 158 172 220 187 200 207 217 230 241 267 318 317 313 289 262 107 89 46 13 28 56 62 52 33 6 9 10 16 19 4 348 342 331 321 313 313 313 308 309 318 318 316 318 317 315 314 312 310 308 306 303 299 299 297 295 292 291 292 290 293 292 294 294
202 136 220 202 213 217 206 245 246 243 13 150 175 22 265 146 231 188 182 240 183 181 197 214 196 230 194 223 222 219 238 270 271 275 271 272 260 74 49 43 34 23 14 27 40 44 27 355 355 354 348 349 349 349 334 327 313 311 312 309 309 317 316 315 315 315 314 312 310 309 307 305 303 301 301 297 295 292 290 291 290 288 288 290 289 287
231 116 233 231 171 177 209 221 224 144 224 196 141 181 234 205 207 181 144 201 217 188 200 201 223 209 197 196 229 254 251 254 281 262 268 271 89 40 33 28 27 29 32 64 67 37 29 360 344 330 333 337 344 338 329 320 310 310 311 306 315 316 315 313 313 311 309 308 307 306 305 304 303 300 297 296 296 292 290 292 290 287 288 287 285 287
212 194 200 229 201 168 194 245 197 137 194 207 181 211 214 238 219 207 182 178 184 223 202 207 224 213 187 195 213 215 256 250 245 241 210 227 77 49 7 346 31 39 57 49 32 42 30 2 334 328 323 336 334 326 317 311 308 310 307 308 318 314 315 313 312 311 308 308 307 306 307 305 303 301 297 295 294 293 293 290 290 290 288 287 289 288
265 229 226 262 250 250 256 227 242 286 260 239 206 206 217 240 257 255 236 240 227 222 214 216 188 168 179 168 191 231 222 245 260 268 315 358 4 293 348 14 24 45 52 30 23 25 359 341 329 323 317 320 326 313 311 308 312 306 304 311 312 311 311 312 312 309 308 306 306 306 307 305 304 299 297 294 290 286 286 288 291 289 291 288 285 286
230 239 250 239 254 268 253 204 213 239 251 248 238 240 234 225 238 240 235 229 234 225 197 167 166 173 177 170 187 210 228 223 248 254 241 263 274 306 16 354 33 54 30 26 14 1 346 339 324 321 320 312 318 317 313 311 304 296 302 308 308 310 311 309 307 305 306 306 306 307 306 304 303 301 298 296 294 289 288 288 286 287 288 285 286 286
269 228 245 239 245 223 251 247 250 238 246 249 237 245 252 253 252 246 232 224 208 178 163 168 137 155 145 179 195 198 223 212 216 241 251 259 295 359 355 34 33 19 25 28 351 355 335 329 319 315 314 309 313 317 311 308 305 303 304 304 309 310 309 305 305 304 304 305 306 304 304 299 297 298 297 295 293 293 291 286 284 285 283 285 284 285
230 177 246 160 209 235 250 248 250 265 270 266 260 244 238 245 251 250 232 167 144 144 142 144 152 174 175 200 181 189 201 218 200 222 256 287 317 348 39 38 29 21 352 341 338 353 329 321 313 304 304 304 311 311 308 303 303 307 310 309 309 309 306 304 303 302 301 302 301 297 297 296 296 295 296 295 292 284 284 289 287 281 277 269 265 265
240 246 242 96 205 217 217 234 219 240 254 258 251 244 242 242 246 246 182 166 167 168 166 166 176 147 148 147 155 161 193 202 181 126 228 273 23 40 27 20 1 340 329 328 330 327 312 302 298 305 304 302 307 306 307 308 309 310 308 307 306 307 304 304 305 304 301 300 298 297 298 298 297 296 295 294 294 293 285 275 285 287 288 288 285 286
221 238 235 225 226 245 242 243 230 235 247 247 257 252 233 218 210 195 182 198 201 184 170 166 169 174 179 177 136 158 173 165 178 82 46 54 32 51 39 15 346 325 320 326 319 310 301 302 304 300 297 300 309 310 310 308 308 307 306 305 305 304 301 304 304 301 298 300 298 298 299 298 298 296 293 291 291 290 290 293 284 287 290 290 292 292